GFSSE_con_mucape_273.txt.gz
CAPE
1147 1282 1761 1965 1712 1519 1346 1411 1747 1839 1575 1496 1634 1472 1423 1612 1341 1170 1302 1301 1352 1179 1084 1102 1651 1209 1659 1534 1723 1633 2167 2583 2357 2420 2374 2457 2486 2163 2250 2297 2110 1492 1760
1072 1247 1753 1973 1879 1581 1894 1711 1776 1876 1630 1592 1517 1461 1399 1213 1199 1389 1425 1374 1228 1478 1481 1552 1544 1516 1664 1914 1922 2027 2074 2447 2293 2238 2422 2342 2227 2309 2311 2398 2186 2473 2489
992 1298 1579 2187 2098 1471 1680 1820 1972 1718 1745 1716 1728 1640 1547 1473 1476 1485 1546 1386 1308 1884 1745 1566 1606 1620 1634 1757 1928 1963 2183 2093 1891 2057 2201 1525 1918 2313 2306 2506 2333 2265 2160
1090 1307 1530 2260 2186 1482 1433 1725 1857 1881 1668 2020 1860 1813 1714 1798 2007 1818 1820 1468 1648 1877 1902 1753 1680 1591 1645 1789 1879 1885 2176 2641 2636 2405 1683 1670 1703 1726 2035 2066 2007 2008 1813
1088 1182 1529 2235 2083 1514 1472 1762 1824 2180 1417 1601 2020 1991 2026 2085 2129 2094 2100 2065 1926 1823 1715 1761 1761 1638 1538 1545 1722 1767 1804 2467 2321 1729 2052 2269 1785 2031 1925 2065 2036 1973 1832
1005 858 1810 2099 1556 1558 1648 2343 1946 1906 1369 1281 1926 2027 1952 1997 2087 2019 2061 2056 1984 1816 2049 1793 1474 1471 1430 1431 1631 2066 2037 2089 1937 1420 1895 2045 1865 2208 2153 1798 1869 2136 2070
852 877 1472 2512 2450 1690 2011 2375 1982 1653 1798 1008 1248 1818 2088 2071 2041 1881 1415 1578 1850 1727 1446 1757 1712 1807 1915 1863 1760 1974 1875 1857 1251 1211 1266 1907 1746 2450 2070 2125 2334 2262 2148
955 784 1196 2281 2610 1791 2162 2150 2252 2438 2022 1939 1563 1266 1277 1524 1670 1708 2030 1756 1602 1709 1682 1509 1673 1796 1616 1614 1393 1309 1529 1199 1092 908 578 1611 1754 2475 2177 2290 2263 2026 2050
1061 818 1067 1794 2666 1813 2357 1945 2193 2167 2153 2187 2078 2150 2052 1974 1702 1659 1450 1451 1672 1753 1796 1503 1429 1634 1893 1691 1716 1672 1717 1659 1627 770 389 1280 1784 2381 1909 2387 2488 1954 1677
1064 780 981 1569 2202 2133 1410 1961 2258 2426 2150 1877 1747 1895 1789 1671 1702 1682 1729 1679 1576 1374 1292 1589 1913 1588 1564 1850 1883 1621 1636 1667 1599 839 563 693 1352 1891 1880 2300 2127 1807 1716
1043 906 872 1376 2156 2748 1924 2564 2331 2545 2507 2241 2167 2150 2049 1773 1905 1858 1579 1676 1585 1633 1566 1477 1371 1383 1697 2083 1942 1601 1368 1027 1294 1000 539 567 1225 1781 1920 2124 2043 2016 2068
850 970 1085 1169 1639 1907 1982 2209 2626 2526 2516 2378 1803 1511 2040 1761 1888 1661 1266 605 711 941 1454 1496 1531 1757 1892 2238 1416 1583 1057 874 1120 791 560 471 883 1682 1735 1766 2214 2388 2626
536 735 1001 1213 1689 1841 1936 1533 2229 2546 2281 1861 1834 1164 1475 1117 902 301 182 141 247 412 1578 1202 943 1302 1759 1534 1636 885 938 1267 964 691 701 479 854 1192 1472 1438 1909 2249 1825
404 542 632 1013 1673 1727 1855 1756 2050 2259 1989 1492 1023 1382 795 756 301 83 115 174 152 132 134 448 772 923 1431 1392 1112 1133 1106 1155 1149 856 902 807 735 995 1263 1323 1258 1226 2426
102 294 464 1040 1737 1856 2111 1559 1695 1703 1884 1503 1452 1234 558 382 234 30 39 82 47 27 41 395 744 697 795 721 597 1008 961 1059 1400 1113 862 1120 1183 942 1042 1201 1201 1451 1587
139 315 464 1002 1488 1744 1955 1970 1722 1623 1763 1751 1155 1176 1217 553 368 159 147 99 24 96 189 189 769 802 708 659 815 828 1016 951 881 1096 1016 1061 1220 1432 1474 1384 1384 1653 1510
714 956 947 1057 1216 1743 1832 1918 1692 1163 1148 1231 1042 844 785 1041 808 755 454 154 65 79 373 471 469 639 1035 1201 840 602 921 873 508 717 696 820 1049 1116 1503 1560 1837 1947 1901
1117 1304 1359 1096 1069 1451 1515 1588 1476 1209 1092 1115 818 1029 998 1095 1060 917 680 394 168 91 251 401 330 731 584 899 550 1584 255 202 264 808 611 661 844 930 885 1369 2083 1919 1811
1093 1271 1390 1247 1177 1163 1372 1305 1237 1180 1146 1116 934 841 682 996 981 1160 1288 831 479 282 207 233 470 825 1023 1305 844 1411 508 337 148 392 486 638 637 798 1035 810 1405 2067 1618
1004 1228 1392 1361 1482 1402 1155 1159 1012 985 1015 1218 1304 990 361 249 576 1215 765 780 553 523 316 191 850 1208 1119 1553 1010 467 366 303 447 609 801 281 808 889 848 974 916 1000 1536
845 985 1168 1250 1395 1340 1103 1003 975 1037 1062 1245 1339 973 791 706 728 380 614 729 722 678 859 915 1192 1236 1215 1387 780 896 131 103 272 382 421 555 666 798 671 1083 1131 1039 1144
537 681 1003 1060 1203 1159 960 976 995 1118 1150 1303 1146 1275 1193 1010 572 631 907 902 831 761 1050 914 1070 1006 1019 1167 1121 935 349 73 197 252 478 531 560 459 478 721 812 1221 1481
238 418 583 799 1019 944 1011 1005 1051 1245 1224 1135 1437 1202 1519 1312 867 1107 1175 1182 1115 1189 1121 1596 1002 493 625 750 925 917 213 206 278 187 360 484 669 413 329 685 588 715 1218
212 214 393 558 680 713 936 986 1104 305 342 205 415 935 1248 1243 1269 1382 1578 1687 1735 1722 1462 1003 797 676 279 269 518 627 290 155 201 327 333 336 160 219 556 245 508 334 848
347 278 262 519 708 809 1019 1062 285 206 161 144 37 35 422 663 827 882 1480 2017 2052 1856 1279 1093 1119 954 273 287 427 524 314 93 139 701 282 594 160 217 277 386 144 153 126
450 329 320 671 762 854 1058 299 216 146 83 49 8 24 51 210 1181 1356 1172 1302 1525 1746 1618 1508 990 1431 791 789 881 851 580 457 346 422 504 179 111 428 632 431 202 237 153

GFSSE_con_mucape_276.txt.gz
CAPE
1348 1403 1854 1879 1509 1541 1500 1615 1632 1623 1633 1435 1358 1363 1276 1178 1207 1261 1270 1271 1227 1246 1057 1177 1323 1452 1645 1587 1336 1782 2404 2340 2381 2471 2590 2442 2080 2298 2203 1821 2208 1201 2193
1435 1300 1766 2410 1678 1498 1635 1584 1645 1665 1615 1657 1664 1548 1703 1481 1234 1401 1436 1381 1283 1468 1470 1564 1367 1649 1706 1721 1824 2068 2445 2326 2238 2345 2263 2035 2203 2398 2414 2319 3094 2337 1774
1267 1430 1703 2324 1993 1774 1825 1622 1667 1596 1627 1652 1618 1563 1397 1293 1352 1477 1470 1368 1658 1751 1611 1621 1612 1738 1826 2005 2043 2152 2369 2387 2309 2284 2056 1641 1924 2266 2468 2241 2484 2417 2378
1248 1402 1712 2420 2287 1718 2000 2017 1853 1779 1779 1750 1698 1630 1603 1699 1707 1624 1676 1467 1823 1928 1874 1745 1744 1838 1961 1918 1939 2076 2227 2096 2031 1772 1720 1225 1132 2215 2266 2104 2207 1759 2112
1107 1426 2093 2499 2173 1608 1888 1933 1972 1671 1962 1967 1932 1763 1798 1865 2027 2138 1847 1846 2062 2067 1845 1949 1718 1856 1985 1926 1715 2048 2565 2513 2239 1923 1739 1369 1062 1639 1912 1797 1812 1730 1996
985 1210 1986 2074 1684 1565 1778 1960 2265 1953 1180 2054 2025 2052 1995 1888 1899 2082 2047 1951 2078 1842 1982 1841 1744 1719 1672 1744 1685 1583 2338 2379 1734 1250 1538 1346 1684 2323 2245 1684 1889 2084 2068
775 1126 1723 2401 1836 1699 2136 2293 1978 1837 1076 1783 2050 2052 1978 1901 1920 1604 1889 2023 1992 1951 1892 1747 1646 1794 1718 1707 1980 2112 2162 1942 1332 1205 1058 916 1529 2200 1560 1779 2144 2075 1728
557 881 1351 2147 1915 1867 2436 2297 1934 1809 1684 1319 1446 1769 2054 2135 2060 1941 1627 1320 1377 1217 1492 1860 1807 1913 1859 1604 1571 1817 1883 1774 1059 1152 995 973 1823 2347 2144 1957 2281 2233 1909
470 739 959 1495 2259 1898 2535 2180 2527 2374 2114 2297 1617 1560 1311 1568 1349 1434 1523 1764 1809 1617 1690 1483 1383 1777 1705 1584 1596 1465 1548 1500 1747 1331 354 1128 1691 2222 2120 2043 2312 1862 1717
474 518 749 1317 2034 1070 2126 2048 2294 2244 2220 1826 2065 1857 1704 1473 1558 1628 1663 1658 1411 1305 1299 1640 1635 1549 1768 1827 1676 1629 1671 1744 1362 1404 713 1237 1876 1800 1848 2167 2509 1951 1498
537 481 614 1122 1656 1525 1236 1683 2284 2480 2243 2338 1960 2216 2172 1962 1568 1716 1523 1600 1559 1422 1438 1407 1424 1412 1787 1877 1797 1593 1421 648 627 1132 922 1081 1068 1857 1664 2028 2212 1913 1681
570 473 647 1159 1403 2326 1310 1962 2199 2151 2472 2105 2049 1834 1996 1117 1393 1927 1522 876 704 782 1153 1534 1543 1615 1666 1331 995 2131 926 342 448 458 994 878 850 1935 1783 2070 2137 2009 2043
397 563 621 1013 1492 1508 1346 1377 1493 1854 1752 1781 1989 1786 1474 1890 1071 979 741 207 269 490 399 1136 1215 1012 575 1038 1721 826 361 679 604 330 545 1166 815 1412 1918 1794 1830 2542 2337
271 463 560 766 1461 1591 1463 1410 2139 2428 1746 1175 1864 1587 1925 998 432 792 105 42 110 72 106 373 550 581 646 829 927 1123 884 525 694 569 548 1576 1048 1097 1477 1672 2295 1931 2149
291 450 448 575 1598 1852 2030 1768 1825 1679 1743 822 1076 811 1398 590 519 282 181 44 80 78 80 83 203 414 868 792 504 738 1169 982 764 694 907 1764 1426 1280 1221 1372 1741 2154 1387
297 395 419 541 1175 1823 1960 2208 1812 1505 1224 1777 1503 1328 1353 673 321 383 346 375 217 261 213 322 253 466 1246 527 492 700 882 874 1260 952 460 897 1880 1698 1598 1357 1583 2287 1806
278 426 702 731 980 1771 1989 2146 2110 1619 1266 1084 1013 1315 1248 1107 742 1516 1711 1186 599 438 539 677 581 473 520 1301 732 670 981 897 1112 571 1216 1042 724 1738 1943 1623 1676 1929 2371
571 960 1311 1082 1152 1420 1734 2018 1847 1642 1536 1238 958 1080 1107 1344 1459 1434 1553 2271 1033 518 636 812 1086 716 419 519 474 734 1477 559 169 579 687 615 668 627 1705 1972 2046 2140 1440
1137 1572 1913 2000 1667 1453 1789 1979 1859 1655 1720 1548 1346 1592 1280 811 542 908 2046 1877 1476 747 1990 1296 772 1072 1313 1037 956 980 1008 1003 539 133 361 796 430 721 648 1660 1876 1949 1461
1239 1637 1925 2076 2128 2088 2048 2184 1754 1515 1430 1509 1554 1471 1478 814 233 323 1944 969 1636 1294 1266 1959 1063 1849 1398 1399 1145 1091 1231 350 350 361 490 750 496 619 924 984 1435 1186 1746
1254 1506 1910 2141 2335 2430 2075 1876 1668 1343 1367 1858 1802 1827 1605 987 456 568 532 1117 1364 1170 1029 1293 1509 1156 1981 2525 1662 2023 1676 1295 203 194 303 478 525 490 796 1256 1336 1029 1292
1188 1434 1868 2270 2441 2547 2202 2209 1900 1772 1634 1766 1732 1645 1040 1084 1466 1483 1497 1536 2017 2091 1470 1617 1796 1857 1324 860 695 1356 976 1194 755 186 382 392 400 777 806 1089 1114 1208 1067
874 1116 1597 2101 2271 2367 2128 1680 1744 1809 1736 1789 1689 1654 1700 1801 1905 1715 1837 1920 2215 2513 1922 2115 1342 1591 1186 1038 667 774 780 771 166 971 427 393 601 1019 732 405 614 1008 1162
824 933 1134 1579 1977 2045 2056 1811 2086 1741 1608 1349 1169 1011 1134 1686 1746 1689 1885 2091 2463 2604 2509 2246 1819 1636 1469 1169 733 478 1049 832 187 377 688 1384 994 1142 1016 1267 736 1047 872
840 805 892 1370 1786 1687 1912 1998 2027 1783 961 685 376 378 803 1505 1714 1121 1258 1623 2204 2490 2633 2133 1932 1704 1413 1849 1628 327 922 899 169 159 234 422 412 309 415 974 552 677 766
1048 992 983 1498 1877 1833 2010 2001 2006 1373 1025 442 306 52 162 627 1020 596 640 1582 2084 2250 2200 2326 2186 1808 2020 1509 702 1119 330 1040 720 231 673 848 160 139 515 517 668 485 268

GFSSE_con_mucape_279.txt.gz
CAPE
1308 974 1651 1907 1742 1700 1502 1511 1398 1295 1315 1226 1211 1155 1126 1051 1097 1119 773 702 928 1117 1157 1257 1601 1641 1266 1299 1664 2197 2243 2393 2592 2521 2059 1923 2178 2057 1751 1720 2665 1631 2202
1237 1157 2008 2246 1776 1768 1819 1835 1893 1859 1728 1567 1611 1613 1552 1270 1261 1351 1321 1138 1025 1150 1199 1304 1280 1506 1658 1511 1634 2210 2214 2148 2194 2194 2041 2092 2295 2353 2649 2694 2625 1498 1722
1265 1314 1667 2495 1987 1808 1780 1779 1803 1763 1779 1838 1733 1717 1436 1272 1390 1396 1421 1486 1415 1551 1442 1285 1262 1528 1712 1717 1925 2197 2229 2086 2129 2146 2231 1309 1589 2292 2299 2513 2505 2235 2231
1218 1332 1609 2516 2494 1869 1732 1788 1761 1729 1750 1746 1647 1507 1385 1509 1543 1599 1538 1504 1819 1566 1709 1443 1555 1777 1984 1981 2014 1966 1839 1824 2036 1961 1429 90 899 2228 2141 2227 1857 2098 2209
951 1199 2122 2397 2250 2089 2106 2045 1853 2023 1872 1857 1766 1728 1733 1905 1914 1792 1543 1696 1845 1699 1675 1467 1584 1531 1905 1839 1914 2244 2419 2272 2059 1865 1364 411 902 1743 1798 1895 1405 1887 1886
994 1522 2171 2096 1804 1967 2014 2006 1795 1432 1940 2059 1863 2057 1733 1884 1925 1988 1922 1794 1727 1683 1737 1773 1770 1619 1850 1578 1485 2108 2448 1808 1764 1631 1464 1397 1129 2160 1876 1794 2082 2077 2060
1079 1541 1908 2429 1717 1801 2061 2052 2316 1191 1462 2065 2142 1881 1919 1819 1909 2048 1845 1901 1767 1663 1755 1640 1704 1608 1621 1480 1616 1536 2105 1676 1578 478 872 267 1753 2153 1508 1675 1991 1904 1410
887 1008 1684 1970 1796 1835 2617 2174 1704 1387 1110 1547 1984 2185 2243 2043 1878 1677 1331 1427 1251 1219 1780 1762 1732 1764 1779 1728 1917 1914 2020 1748 733 634 562 1040 2541 2143 1511 2065 2075 2031 1499
672 908 918 1086 1664 1993 2699 2123 1939 2039 1704 1695 1229 1268 1417 1364 1256 1618 1896 1731 1767 1524 1597 1277 1310 1681 1564 1516 1356 1510 1642 1710 1379 1547 420 739 2707 2378 1983 1963 2234 1840 1729
573 717 861 985 1027 1172 2146 2080 2546 2173 2304 2392 2325 2239 2111 1555 1773 1656 1574 1215 1051 1176 1324 1605 1459 1315 1724 1612 1518 1549 1523 1705 897 1082 491 1081 2531 1936 2036 1904 2302 1937 1484
440 466 641 1144 1092 1091 1801 1751 2151 2183 2076 1616 1642 1782 1639 1513 1889 1296 1358 1459 1706 1420 1310 1254 1332 1384 1682 1655 1689 1620 1480 585 280 704 1088 2118 2089 1501 1168 1832 2407 2181 1564
418 405 605 1127 1003 1075 778 2099 1927 2192 1814 1475 1744 1962 2093 1269 1407 863 1380 999 645 819 939 1316 1619 1598 1617 576 1329 1752 941 156 139 157 937 1911 1359 1453 1764 1882 2306 2045 1749
420 371 543 800 1142 1281 966 1207 1323 1302 1267 1822 1446 1746 350 384 215 1029 762 328 152 507 218 560 1287 1410 441 914 754 799 1241 246 801 456 831 1791 1261 918 1920 1892 2312 2145 2057
309 404 473 778 1155 978 928 861 1102 1688 1410 720 1112 1494 1243 1390 802 456 191 81 89 285 576 709 229 751 1069 484 745 1270 643 228 280 691 1105 1966 1797 1215 1405 1965 2506 2468 2195
217 365 405 706 1482 1535 1598 1234 1073 640 724 631 1314 664 965 102 185 722 1179 377 306 493 516 949 702 363 965 961 311 874 950 610 959 555 321 1534 694 1230 1254 1415 2089 2735 2111
238 340 409 555 1451 1736 1751 2097 1946 1221 781 1589 1686 1409 983 643 646 1148 1421 1323 1023 1005 941 1323 945 997 615 622 783 681 389 1260 1737 1498 631 473 609 623 1213 1392 1886 1960 2006
466 590 566 596 787 1807 1951 2065 2251 1365 1357 1549 794 1247 1321 363 444 1729 2205 822 1176 1667 1265 1172 1403 937 595 442 533 883 618 808 707 319 1017 453 685 124 575 1642 1607 2068 1957
411 630 825 639 752 1427 1831 2130 1986 1859 1568 1686 1397 1324 1444 1910 1795 1463 630 2015 1293 2297 1050 1326 763 890 907 854 926 713 1658 1115 549 204 873 889 417 198 610 874 1516 1724 1682
506 901 1191 1333 1249 1518 2699 1984 2049 1909 1849 1766 1474 2226 1721 1017 1255 1128 546 1131 2039 1937 2545 1633 2038 1891 2066 1088 851 963 1505 1113 663 243 315 227 371 269 284 884 1033 1278 1473
746 1332 1857 2011 2274 2191 1955 2292 2026 1901 1831 1779 1747 1620 2357 2122 1546 422 555 2255 1608 2296 1714 1879 1548 2078 1699 2293 1484 1591 1645 1979 892 343 173 25 145 504 329 498 1495 892 1611
990 1376 1824 2230 2588 2791 2541 2424 2313 1947 1723 1621 1738 2110 2467 2250 1280 1303 1109 1421 1171 1747 1728 2009 1845 1541 1435 959 466 861 781 978 545 717 275 92 802 640 591 419 231 898 1212
1040 1210 1756 2389 2982 2943 2689 2678 2534 2278 2017 2190 2063 2371 2482 2052 1653 1900 1800 1800 2601 1709 1718 1932 2055 2390 1826 2172 815 1018 760 1215 1464 808 721 652 436 502 365 989 583 878 1144
932 1198 1689 2777 2951 3665 3323 2811 2509 2231 2459 2178 1949 1725 2177 1953 2011 2195 2298 2068 2041 2851 2513 2517 2301 2024 2103 2202 1510 461 634 584 470 491 727 536 158 868 288 779 619 478 541
719 986 1607 2533 2842 2927 3475 3276 3270 2353 2185 1888 2263 1739 1639 1878 2255 2452 2094 2341 2433 2719 2887 2517 2516 2498 2173 1705 1427 1106 753 869 535 510 190 357 269 510 788 867 499 98 418
779 781 989 2831 3643 3058 3412 3589 2566 2666 2119 1703 1453 1267 1354 1420 1841 1402 1662 1889 2146 2558 2572 2428 2374 2137 2337 1793 1939 1652 471 387 764 475 258 306 338 370 956 1300 372 204 690
809 727 990 2266 3222 2858 2804 2868 3071 2552 2095 1306 1128 429 248 1036 1784 1132 919 1437 1888 2320 2441 2306 2247 2197 2345 1960 1864 1158 735 616 1071 857 621 276 270 177 74 306 234 150 867

GFSSE_con_mucape_285.txt.gz
CAPE
614 1046 2256 1926 1802 1641 1434 1361 1271 1253 1144 1086 1062 946 947 912 891 1093 1063 755 902 1100 1097 1362 1357 1222 1485 1681 1857 2186 2228 2346 2277 2077 1405 1819 1924 1812 2572 2521 2035 1949 2436
556 1225 2514 2598 2137 2051 1682 1586 1371 1363 1240 1186 1133 1100 1062 995 799 1274 942 997 990 1093 1221 1443 1459 1090 1376 1660 1858 2095 2121 2250 2320 1744 1740 1849 1892 1834 2138 2387 2100 1971 2282
890 1543 1912 2502 2132 1820 2244 2082 1638 1506 1386 1537 1508 1210 1098 1100 927 973 973 1068 1112 1187 1323 1256 1299 1398 1345 1493 1778 1821 1898 1964 2053 1444 923 864 1198 1405 1728 2151 1735 1712 1583
955 1170 1541 2484 2535 2040 2069 2231 2267 1780 1749 1580 1506 1169 1176 1299 1328 1356 1186 1176 1270 1305 1247 1055 1373 1455 1433 1575 1820 1890 1976 1867 1487 1142 181 475 543 1369 1853 1989 1930 2266 2184
901 1178 1631 2656 2594 1937 1787 1890 2179 1852 1802 1576 1314 1443 1530 1532 1623 1404 1615 1393 1384 1323 949 1013 1454 1691 1677 1634 1729 1688 1899 1611 757 65 0 163 525 1227 1880 2292 2249 2307 1774
931 1348 2378 2443 1825 1792 1861 1880 1634 1629 1609 1610 1607 1570 1827 1807 1583 1509 1539 1644 1415 1281 1297 1417 1507 1740 1592 1559 1582 1906 1907 1582 463 254 41 86 621 1533 1244 1651 2019 1800 1979
1201 1625 1881 2800 2678 2278 1709 1888 1940 1769 1723 1703 1842 1742 1657 1946 1916 1730 1844 1766 1565 1543 1272 1478 1383 1631 1549 1243 1421 1827 1883 949 541 149 164 85 610 1990 1894 2119 2050 1941 1769
1322 1535 1749 2413 2544 2061 2206 1542 1191 1888 2011 1959 1691 1780 1799 1626 1804 1708 1712 1751 1705 1602 1362 1531 1528 1439 1512 1322 1298 1058 1516 1401 708 231 50 1 750 2675 2286 2046 1882 1762 1341
1137 1319 1459 1584 1676 1893 2156 1642 796 1478 1836 2043 2119 2123 1851 1753 1467 1302 1245 1067 990 1636 1586 1709 1471 1443 1497 1556 1513 1832 1607 1688 686 166 302 273 1682 2005 1802 1866 1769 1175 1145
926 938 1067 1278 1520 2254 1832 1506 1486 1097 1193 1684 1706 1632 1528 1193 1874 1879 2108 2109 1642 1660 1347 1105 1117 1443 1595 1401 1453 1357 1459 1566 1326 351 116 815 1582 2256 2351 2099 1835 1528 1476
623 622 693 779 1049 2023 1659 1780 1875 1818 2079 1157 1477 1595 2274 886 1014 944 1216 1206 1076 1194 1282 1549 1528 1534 1366 1630 1429 1639 1690 1229 897 778 617 1656 1580 2203 1917 2380 2224 1692 1492
394 375 455 519 579 1699 1746 2140 2115 1576 2025 1714 1990 1705 1265 873 1061 1024 1458 1486 1284 1363 1335 1409 1490 1521 1460 1245 1184 1439 1318 1208 751 283 383 1188 1522 1987 1720 2436 2679 2212 1563
236 309 368 551 562 1312 1491 1540 1517 1577 1438 967 904 1086 1268 1090 621 411 901 1123 505 592 347 893 827 954 1080 889 654 1186 934 415 0 118 267 515 660 1058 1414 1833 2450 2560 2074
85 330 474 648 688 945 1494 718 1436 1585 77 270 990 1068 1379 183 472 276 0 274 453 42 128 161 235 539 763 397 291 495 200 53 0 65 644 1011 813 1775 1309 1617 1924 2423 2212
47 314 510 534 641 1005 1224 1257 1079 1122 439 298 586 926 879 393 272 18 120 374 232 146 129 188 61 275 724 591 280 158 121 93 44 198 269 1158 1590 1514 962 966 1001 2058 2129
0 0 146 565 693 1177 1235 1376 1112 673 529 413 702 967 556 635 99 71 534 359 158 187 340 185 188 77 23 264 236 247 397 155 356 366 506 773 1098 1049 649 541 847 912 1776
1 0 445 728 980 910 1579 1672 1556 1067 703 1021 798 972 580 493 331 881 617 387 258 300 320 433 260 373 516 279 264 259 411 605 699 523 346 250 866 1120 575 622 1117 505 768
29 104 685 943 979 1056 1381 2001 1736 1508 733 598 711 890 721 435 166 462 300 172 151 199 310 449 493 447 333 311 363 388 417 603 386 213 307 144 281 440 857 1170 1071 1083 1037
64 134 304 668 1084 1073 1260 1407 1447 1619 1515 1056 1194 1006 1024 791 619 500 582 519 403 453 718 621 601 622 288 200 200 567 477 310 397 628 237 123 109 197 174 564 1391 1486 643
288 285 242 209 875 1155 1619 1665 1694 1574 1551 1470 1311 918 1192 1231 1143 1307 1004 760 348 647 844 676 509 441 588 322 625 732 229 223 209 219 321 375 201 185 207 145 253 656 829
370 375 644 584 1877 1408 2001 1713 1602 1390 1468 1715 1516 1798 1897 1515 1323 1143 972 765 459 584 1002 896 1090 1105 891 759 540 358 247 206 211 210 220 294 295 234 174 110 98 226 361
515 553 770 1106 1870 1858 1907 1631 1725 1637 2029 2046 1903 2154 1786 1834 1495 981 697 590 745 921 903 696 930 1133 1019 703 513 318 340 321 642 471 369 297 269 187 147 112 162 210 152
543 718 1023 1607 2408 2109 2268 2372 2528 2339 2170 1859 1873 1744 1619 1646 1324 1103 796 496 576 424 702 745 820 1165 937 703 627 490 270 228 263 219 227 237 251 196 161 188 107 151 140
444 1184 1606 2130 2898 2434 2428 2850 2632 1937 1815 1783 1453 1770 1606 1630 1190 650 567 268 405 582 949 1005 1095 1064 873 392 778 669 560 389 344 177 208 128 119 113 84 181 305 177 158
700 803 1801 2062 2993 2581 2914 2311 2543 2608 2321 2150 1833 1251 979 937 477 508 449 394 489 1106 1255 1438 1105 843 886 649 703 662 608 482 341 290 112 268 174 142 83 224 161 195 148
916 1159 1881 2349 2424 2738 2745 2974 2644 2992 1977 1585 1333 1139 724 737 335 841 836 878 862 1012 1240 1157 1059 1046 826 791 809 703 531 434 491 370 287 297 288 53 82 111 8 84 126

GFSSE_con_mucape_291.txt.gz
CAPE
293 951 1421 1682 1542 1336 1296 1218 1163 1112 1141 1187 987 992 953 1184 1107 1333 1230 867 772 671 810 858 818 909 887 1349 1243 1653 2106 1959 1725 1626 1935 2202 2198 1732 1353 1417 1488 1661 1848
457 1222 1512 2137 1531 1528 1388 1327 1269 1271 1118 1022 1053 915 898 690 704 829 849 887 1114 1262 1200 1268 1167 1018 884 706 807 1588 1774 1591 1293 1848 1609 1614 2033 2006 2061 1989 1704 1629 1667
1022 1434 1592 2217 1878 1603 1526 1503 1468 1372 1333 1394 1230 1065 957 868 823 779 764 953 1057 1317 1392 1184 1305 1211 1049 829 754 1253 1600 1721 1997 1953 1582 1125 1465 2034 2008 1915 2060 1858 1832
1375 1463 1496 2321 2251 1658 1648 1673 1574 1520 1468 1347 1354 1298 1179 1253 1186 1066 986 976 1066 1353 1345 1421 1199 1353 1269 1179 953 1305 1768 2044 1717 568 487 835 1283 1742 2046 1624 1937 1904 1955
1663 1758 1696 2254 2077 1776 1732 1725 1747 1762 1878 1447 1381 1306 1227 1348 1279 1286 1232 1198 1332 1389 1195 1357 1470 1440 1239 1181 1298 1535 1391 1501 1535 221 234 556 965 1524 1630 1532 1736 1312 1698
1614 1637 2143 2386 2220 2325 2222 2109 1913 1897 1895 1387 1421 1415 1330 1393 1493 1316 1379 1328 1455 1218 1100 1352 1428 1466 1456 1525 1680 1702 1582 1229 399 2 0 178 857 1415 1890 1800 1665 1594 1376
1532 1666 2018 2768 2358 2166 2097 2166 2047 1971 1591 1799 1922 1798 1898 1680 1449 1815 1456 1435 1390 1174 1128 1579 1951 1666 1674 1393 1296 1541 1807 1151 249 89 7 148 673 1353 1758 1745 1764 1682 1814
1492 1957 2037 2213 1957 1892 1772 1857 1816 1800 1799 1876 1872 1957 1828 1739 1738 1482 1526 1492 1336 1292 1387 1491 1623 1754 1449 1489 1670 1653 918 1375 1220 191 77 84 471 1461 1393 1874 1880 1790 1909
1687 1832 1816 1713 1839 2298 2332 2032 1955 1734 2178 2001 1985 1840 2173 1934 1681 1838 1543 1594 1537 1558 1472 1371 1429 1633 1512 1204 1140 903 1110 1014 821 161 60 73 297 1636 2133 1865 2128 1749 1658
1670 1747 1801 1930 1562 1411 1245 1745 2271 2250 2140 1780 1906 1887 1417 1684 1888 1846 2196 1361 1369 1393 1409 1639 1682 1657 1601 1536 1546 1666 1528 1540 582 68 73 73 200 1813 2297 2145 2134 1857 1439
1495 1747 1811 1699 1798 1715 1136 695 1787 2311 2058 2318 2274 2138 2203 1620 1221 983 1241 1429 1468 1505 1461 1494 1384 1389 1532 1485 1485 1519 1454 1111 707 65 89 256 479 1212 1893 1947 1861 1564 1138
1139 1510 1606 1373 1612 1743 1125 736 795 1207 1606 1570 1546 1376 1228 861 1474 1245 1511 1597 1694 1691 1580 1588 1535 1343 1255 1075 1323 1391 1213 1014 613 216 88 212 409 1228 1396 1922 1599 1595 1378
758 977 1263 1207 1437 1326 1065 1110 1002 1024 1148 592 831 939 1454 949 647 1152 893 833 801 998 753 940 846 809 1094 1063 945 793 838 786 742 461 284 896 1221 1475 1305 1945 1431 1573 1623
380 386 595 769 1532 1503 1133 1347 1383 1260 1615 1462 1200 1486 1315 983 478 686 871 679 561 341 284 221 231 598 537 653 608 595 607 665 642 282 242 771 1477 1482 1425 1286 1334 1302 1539
67 42 309 407 895 1312 1239 1248 1832 1170 1175 1482 931 846 735 615 552 463 410 377 371 116 107 76 56 79 106 244 382 275 379 287 183 191 124 68 1257 1729 1669 1243 976 1183 1433
37 96 268 443 354 789 1395 1017 1336 1359 833 610 374 322 537 506 569 724 132 81 80 42 94 139 95 100 70 108 252 250 229 143 119 115 79 42 194 1000 1145 1012 677 1003 1158
90 105 200 426 454 468 1275 1218 602 579 724 743 367 154 448 616 605 435 64 27 52 137 102 178 183 146 135 120 118 185 250 179 136 140 106 40 66 413 685 875 909 716 637
115 106 158 391 397 415 662 1088 1150 663 710 797 586 373 264 400 534 364 143 84 100 152 156 102 129 147 136 159 160 201 229 274 261 258 207 181 226 236 377 637 532 518 541
84 66 149 346 393 505 459 727 1010 624 697 576 472 378 390 496 498 462 183 172 174 110 131 325 544 476 347 263 214 278 289 248 316 390 307 257 192 199 136 284 451 596 693
38 84 168 332 391 633 741 865 837 810 834 951 883 622 577 615 590 495 360 195 252 151 370 386 454 546 538 405 211 369 397 446 260 244 225 228 184 157 161 107 100 328 778
52 71 148 358 411 779 867 1241 1218 1151 1095 1142 1177 1242 1322 1203 940 731 461 222 209 163 251 273 479 591 595 339 580 520 256 242 269 217 182 157 150 148 118 101 108 79 68
66 40 140 319 395 470 552 685 842 900 1070 1187 1482 1605 1403 1291 1021 744 505 256 187 119 278 433 646 494 302 439 554 333 280 167 222 187 206 169 141 188 254 269 231 132 117
63 51 85 162 353 482 644 838 1152 1260 1692 1617 1576 1463 1579 1437 1241 895 585 268 89 148 153 317 546 669 653 644 657 541 313 158 181 105 128 127 59 116 139 132 160 148 138
49 44 121 183 353 565 782 961 1183 1375 1417 1613 1660 1432 1489 1227 803 350 420 339 148 52 136 478 741 663 691 505 504 433 451 443 479 388 141 150 119 102 54 0 120 201 190
138 97 292 371 589 676 882 987 1099 1347 1495 1803 1604 1543 1348 854 329 380 364 381 292 527 581 737 696 550 582 659 625 412 460 494 477 407 353 138 46 146 108 24 15 19 115
255 232 275 466 542 991 1122 1170 1277 1380 1618 1729 1537 1217 860 492 441 554 517 824 806 785 709 729 690 589 504 549 525 523 493 384 311 296 422 50 69 95 85 27 17 0 16